Вернуться в каталог

STARLINK-5051

АктивенСвязьVLEO
NORAD 53916·PAYLOAD·🇺🇸 United States

Запущен Sep 24, 2022 с Cape Canaveral Space Force Station

Loading…

Ближайшие Пролёты (ближайшие 24 часа)

TLE

СвежийSource: CelesTrak SupGP

Эпоха: Sep 14, 2026, 13:49 UTC

1 53916C 22119AG  26257.57618056  .00051112  00000+0  16440-2 0  2572
2 53916  53.1577 151.4406 0001259  91.4727 238.8514 15.31669332    13

Отслеживайте STARLINK-5051 в реальном времени с AllMySat

Download on the App Store